This is the latest recevied weather packets stored in our database for station/object 9M2MIN-1. If no packets are shown the sender has not sent any weather packets the latest 1 day(s).
| Time | Temp. | Humidity | Pressure | Rain* | Wind** | Luminosity | Snow |
|---|---|---|---|---|---|---|---|
| 1777891590 | 32.78° C | 74% | 1006.5 hPa | - | - | - | - |
| 1777890690 | 32.78° C | 74% | 1006.5 hPa | - | - | - | - |
| 1777889790 | 32.78° C | 72% | 1006.1 hPa | - | - | - | - |
| 1777888961 | 33.33° C | 69% | 1006.1 hPa | - | - | - | - |
| 1777888890 | 33.33° C | 69% | 1006.1 hPa | - | - | - | - |
| 1777887992 | 33.33° C | 71% | 1006.3 hPa | - | - | - | - |
| 1777887144 | 33.89° C | 68% | 1006 hPa | - | - | - | - |
| 1777887092 | 33.89° C | 68% | 1006 hPa | - | - | - | - |
| 1777886192 | 33.33° C | 69% | 1006.2 hPa | - | - | - | - |
| 1777885292 | 33.33° C | 68% | 1005.9 hPa | - | - | - | - |
| 1777884391 | 33.33° C | 68% | 1005.9 hPa | - | - | - | - |
| 1777883578 | 33.89° C | 66% | 1005.9 hPa | - | - | - | - |
| 1777883491 | 33.89° C | 66% | 1005.9 hPa | - | - | - | - |
| 1777882623 | 33.89° C | 67% | 1005.8 hPa | - | - | - | - |
| 1777882591 | 33.89° C | 67% | 1005.8 hPa | - | - | - | - |
| 1777881691 | 33.33° C | 69% | 1006.1 hPa | - | - | - | - |
| 1777880791 | 33.33° C | 70% | 1006.3 hPa | - | - | - | - |
| 1777879891 | 33.89° C | 68% | 1006.6 hPa | - | - | - | - |
| 1777879075 | 33.33° C | 69% | 1006.7 hPa | - | - | - | - |
| 1777878991 | 33.33° C | 69% | 1006.7 hPa | - | - | - | - |
| 1777878276 | 33.89° C | 66% | 1007 hPa | - | - | - | - |
| 1777878091 | 33.89° C | 66% | 1007 hPa | - | - | - | - |
| 1777877191 | 33.89° C | 66% | 1007.3 hPa | - | - | - | - |
| 1777876422 | 34.44° C | 64% | 1007.5 hPa | - | - | - | - |
| 1777876290 | 34.44° C | 64% | 1007.5 hPa | - | - | - | - |
* Rain since midnight (hover to see other rain measurements)
** Current wind speed in m/s (hover to see current wind gust speed)